User: anonymous   Login
Location: Unspecified
(0.0000°N, 0.0000°E)
Time: 14:44:36
(UTC+00:00)
Language:

PANSAT - Orbit

View from above orbital plane
View from above orbital plane
View from above satellite
View from above satellite

Ground track
Ground track

The orbit data is extracted from the following two-line orbital elements,

1 25520U 98064B   17206.09964313 +.00000783 +00000-0 +19692-4 0  9991
2 25520 028.4575 086.1406 0005316 065.3642 294.7506 15.28420344039786
Epoch (UTC): 25 July 2017 02:23:29
Eccentricity: 0.0005316
inclination: 28.4575°
perigee height: 477 km
apogee height: 484 km
right ascension of ascending node: 86.1406°
argument of perigee: 65.3642°
revolutions per day: 15.28420344
mean anomaly at epoch: 294.7506°
orbit number at epoch: 3978

The dashed part of the orbit path shows where the satellite is in the earth's shadow,  

DLR